Watertown, SD

3:58 AM CST on January 24, 2018 (GMT -0600)
Watertown Municipal

Weather History for KATY - July, 2013

Change the Weather History Date:

Friday, July 12, 2013

  Actual Average Record
Temperature  
Mean Temperature 79 °F 71 °F  
Max Temperature 89 °F 83 °F 103 °F (1936)
Min Temperature 68 °F 60 °F 40 °F (1941)
Degree Days  
Heating Degree Days 0 0  
Month to date heating degree days 0 8  
Since 1 June heating degree days 88 86  
Since 1 July heating degree days 0 8  
Cooling Degree Days 14 7  
Month to date cooling degree days 91 77  
Year to date cooling degree days 202 195  
Since 1 June cooling degree days 180 173  
Growing Degree Days 29 (Base 50)    
Moisture  
Dew Point 67 °F    
Average Humidity 67    
Maximum Humidity 78    
Minimum Humidity 55    
Precipitation  
Precipitation 0.00 in 0.10 in 0.81 in (1955)
Month to date precipitation 0.76 1.20  
Year to date precipitation 14.26 11.63  
Sea Level Pressure  
Sea Level Pressure 29.80 in    
Wind  
Wind Speed 17 mph (South)    
Max Wind Speed 29 mph    
Max Gust Speed 37 mph    
Visibility 10 miles    
Events      
T = Trace of Precipitation, MM = Missing Value Source: NWS Daily Summary

Daily Weather History Graph

Daily Weather History Graph

Search for Another Location

Airport or City:

Trip Planner

Search our weather history database for the weather conditions in past years. The results will help you decide how hot, cold, wet, or windy it might be!

Date:

Astronomy

Jul. 12, 2013 Rise Set
Actual Time 5:54 AM CDT 9:13 PM CDT
Civil Twilight 5:18 AM CDT 9:49 PM CDT
Nautical Twilight 4:30 AM CDT 10:36 PM CDT
Astronomical Twilight 3:31 AM CDT 11:35 PM CDT
Moon 10:25 AM CDT (7/12) 11:10 PM CDT (7/12)
Length of Visible Light 16h 31m
Length of Day
15h 19m
Waxing Crescent, 17% of the Moon is Illuminated
Jul 12
Waxing Crescent
Jul 15
First Quarter
Jul 22
Full
Jul 29
Last Quarter
Aug 6
New

Hourly Weather History & Observations

Time (CDT) Temp. Heat Index Dew Point Humidity Pressure Visibility Wind Dir Wind Speed Gust Speed Precip Events Conditions
12:53 AM 72.0 °F - 63.0 °F 73% 29.87 in 10.0 mi South 16.1 mph - N/A   Clear
1:53 AM 71.1 °F - 63.0 °F 75% 29.86 in 10.0 mi South 16.1 mph - N/A   Clear
2:53 AM 70.0 °F - 63.0 °F 78% 29.86 in 10.0 mi South 12.7 mph - N/A   Clear
3:53 AM 70.0 °F - 62.1 °F 76% 29.85 in 10.0 mi South 15.0 mph - N/A   Clear
4:53 AM 70.0 °F - 61.0 °F 73% 29.85 in 10.0 mi South 13.8 mph - N/A   Clear
5:53 AM 69.1 °F - 61.0 °F 75% 29.84 in 10.0 mi South 11.5 mph - N/A   Clear
6:53 AM 69.1 °F - 62.1 °F 78% 29.83 in 10.0 mi South 11.5 mph - N/A   Clear
7:53 AM 71.1 °F - 62.1 °F 73% 29.83 in 10.0 mi South 17.3 mph - N/A   Clear
8:53 AM 73.9 °F - 63.0 °F 68% 29.83 in 10.0 mi South 15.0 mph 26.5 mph N/A   Clear
9:53 AM 77.0 °F - 64.0 °F 64% 29.81 in 10.0 mi South 18.4 mph 26.5 mph N/A   Clear
10:53 AM 80.1 °F 81.9 °F 64.9 °F 60% 29.80 in 10.0 mi South 18.4 mph 31.1 mph N/A   Clear
11:53 AM 82.9 °F 85.4 °F 66.9 °F 58% 29.79 in 10.0 mi South 20.7 mph 27.6 mph N/A   Clear
12:53 PM 84.9 °F 88.2 °F 68.0 °F 57% 29.78 in 10.0 mi South 23.0 mph 29.9 mph N/A   Clear
1:53 PM 86.0 °F 90.1 °F 69.1 °F 57% 29.76 in 10.0 mi South 21.9 mph 34.5 mph N/A   Clear
2:53 PM 88.0 °F 92.9 °F 70.0 °F 55% 29.75 in 10.0 mi South 23.0 mph 34.5 mph N/A   Clear
3:53 PM 88.0 °F 92.9 °F 70.0 °F 55% 29.76 in 10.0 mi South 21.9 mph 32.2 mph N/A   Clear
4:53 PM 89.1 °F 95.0 °F 71.1 °F 55% 29.77 in 10.0 mi South 15.0 mph 31.1 mph N/A   Clear
5:53 PM 87.1 °F 93.6 °F 72.0 °F 61% 29.76 in 10.0 mi South 17.3 mph 25.3 mph N/A   Clear
6:53 PM 87.1 °F 93.6 °F 72.0 °F 61% 29.76 in 10.0 mi South 18.4 mph 25.3 mph N/A   Scattered Clouds
7:53 PM 84.9 °F 90.7 °F 72.0 °F 65% 29.76 in 10.0 mi South 15.0 mph - N/A   Partly Cloudy
8:53 PM 82.9 °F 88.0 °F 72.0 °F 69% 29.76 in 10.0 mi South 11.5 mph 20.7 mph N/A   Partly Cloudy
9:53 PM 81.0 °F 85.2 °F 72.0 °F 74% 29.75 in 10.0 mi South 16.1 mph 25.3 mph N/A   Clear
10:53 PM 81.0 °F 85.2 °F 72.0 °F 74% 29.80 in 10.0 mi South 13.8 mph - N/A   Clear
11:53 PM 80.1 °F 83.6 °F 71.1 °F 74% 29.81 in 10.0 mi South 17.3 mph 26.5 mph N/A   Clear